San Carlos, CA

5:29 AM PDT on October 23, 2017 (GMT -0700)
San Carlos

Weather History for KSQL - November, 2011

Change the Weather History Date:

Wednesday, November 9, 2011

  Actual Average Record
Temperature  
Mean Temperature 52 °F -  
Max Temperature 64 °F 66 °F 83 °F (1955)
Min Temperature 41 °F 43 °F 34 °F (1975)
Degree Days  
Heating Degree Days 12    
Growing Degree Days 2 (Base 50)    
Moisture  
Dew Point 41 °F    
Average Humidity 75    
Maximum Humidity 93    
Minimum Humidity 42    
Precipitation  
Precipitation 0.00 in - - ()
Sea Level Pressure  
Sea Level Pressure 30.22 in    
Wind  
Wind Speed 1 mph (South)    
Max Wind Speed 6 mph    
Max Gust Speed -    
Visibility 10 miles    
Events      
Averages and records for this station are not official NWS values.
T = Trace of Precipitation, MM = Missing Value Source: NWS Daily Summary

Daily Weather History Graph

Daily Weather History Graph

Search for Another Location

Airport or City:

Trip Planner

Search our weather history database for the weather conditions in past years. The results will help you decide how hot, cold, wet, or windy it might be!

Date:

Astronomy

Nov. 09, 2011 Rise Set
Actual Time 6:42 AM PST 5:03 PM PST
Civil Twilight 6:14 AM PST 5:30 PM PST
Nautical Twilight 5:43 AM PST 6:01 PM PST
Astronomical Twilight 5:12 AM PST 6:32 PM PST
Moon 4:18 PM PST (11/9) 5:42 AM PST (11/9)
Length of Visible Light 11h 16m
Length of Day
10h 20m
Waxing Gibbous, 99% of the Moon is Illuminated
Nov 9
Waxing Gibbous
Nov 10
Full
Nov 18
Last Quarter
Nov 24
New
Dec 2
First Quarter

Hourly Weather History & Observations

Time (PST) Temp. Windchill Dew Point Humidity Pressure Visibility Wind Dir Wind Speed Gust Speed Precip Events Conditions
12:10 AM 48.2 °F - 41.0 °F 76% 30.28 in 10.0 mi Calm Calm - N/A   Clear
12:30 AM 48.2 °F - 41.0 °F 76% 30.29 in 10.0 mi Calm Calm - N/A   Clear
12:50 AM 46.4 °F - 41.0 °F 81% 30.28 in 10.0 mi Calm Calm - N/A   Clear
1:10 AM 46.4 °F - 41.0 °F 81% 30.28 in 10.0 mi Calm Calm - N/A   Clear
1:30 AM 46.4 °F - 41.0 °F 81% 30.28 in 10.0 mi Calm Calm - N/A   Clear
1:50 AM 46.4 °F - 41.0 °F 81% 30.28 in 10.0 mi Calm Calm - N/A   Clear
2:10 AM 46.4 °F - 41.0 °F 81% 30.28 in 10.0 mi Calm Calm - N/A   Clear
2:30 AM 46.4 °F - 41.0 °F 81% 30.28 in 10.0 mi Calm Calm - N/A   Clear
2:50 AM 44.6 °F - 39.2 °F 81% 30.27 in 10.0 mi Calm Calm - N/A   Clear
3:10 AM 44.6 °F - 39.2 °F 81% 30.27 in 10.0 mi Calm Calm - N/A   Clear
3:30 AM 44.6 °F - 39.2 °F 81% 30.27 in 10.0 mi Calm Calm - N/A   Clear
3:50 AM 42.8 °F - 39.2 °F 87% 30.27 in 10.0 mi Calm Calm - N/A   Clear
4:10 AM 44.6 °F 43.1 °F 39.2 °F 81% 30.27 in 10.0 mi SSW 3.5 mph - N/A   Clear
4:30 AM 42.8 °F 41.1 °F 39.2 °F 87% 30.26 in 10.0 mi SSW 3.5 mph - N/A   Clear
4:50 AM 41.0 °F - 39.2 °F 93% 30.27 in 10.0 mi Calm Calm - N/A   Clear
5:10 AM 41.0 °F - 39.2 °F 93% 30.27 in 10.0 mi Calm Calm - N/A   Clear
5:30 AM 41.0 °F 39.0 °F 39.2 °F 93% 30.27 in 10.0 mi SE 3.5 mph - N/A   Clear
6:10 AM 42.8 °F - 39.2 °F 87% 30.27 in 10.0 mi Calm Calm - N/A   Clear
6:30 AM 41.0 °F - 39.2 °F 93% 30.27 in 10.0 mi Calm Calm - N/A   Clear
6:55 AM 42.8 °F - 39.2 °F 87% 30.27 in 10.0 mi Calm Calm - N/A   Scattered Clouds
7:47 AM 44.6 °F - 41.0 °F 87% 30.28 in 10.0 mi Calm Calm - N/A   Scattered Clouds
9:47 AM 53.6 °F - 39.2 °F 58% 30.28 in 10.0 mi Calm Calm - N/A   Mostly Cloudy
11:48 AM 57.2 °F - 41.0 °F 55% 30.24 in 10.0 mi SE 4.6 mph - N/A   Mostly Cloudy
12:49 PM 59.0 °F - 39.2 °F 48% 30.20 in 10.0 mi Calm Calm - N/A   Mostly Cloudy
1:47 PM 60.8 °F - 39.2 °F 45% 30.17 in 10.0 mi Calm Calm - N/A   Mostly Cloudy
2:50 PM 64.4 °F - 41.0 °F 42% 30.16 in 10.0 mi North 3.5 mph - N/A   Mostly Cloudy
3:52 PM 62.6 °F - 44.6 °F 52% 30.14 in 10.0 mi North 5.8 mph - N/A   Mostly Cloudy
4:47 PM 60.8 °F - 46.4 °F 59% 30.14 in 10.0 mi North 4.6 mph - N/A   Mostly Cloudy
6:47 PM 57.2 °F - 44.6 °F 63% 30.14 in 10.0 mi West 4.6 mph - N/A   Mostly Cloudy
7:54 PM 55.4 °F - 42.8 °F 63% 30.14 in 10.0 mi Calm Calm - N/A   Clear
8:47 PM 51.8 °F - 42.8 °F 71% 30.14 in 10.0 mi Calm Calm - N/A   Clear
9:10 PM 51.8 °F - 42.8 °F 71% 30.15 in 10.0 mi Calm Calm - N/A   Clear
9:30 PM 50.0 °F - 42.8 °F 76% 30.15 in 10.0 mi Calm Calm - N/A   Clear
9:50 PM 48.2 °F - 41.0 °F 76% 30.16 in 10.0 mi Calm Calm - N/A   Clear
10:10 PM 50.0 °F - 42.8 °F 76% 30.16 in 10.0 mi Calm Calm - N/A   Clear
10:30 PM 50.0 °F - 41.0 °F 71% 30.15 in 10.0 mi Calm Calm - N/A   Clear
10:50 PM 48.2 °F - 42.8 °F 82% 30.15 in 10.0 mi SSE 4.6 mph - N/A   Clear
11:10 PM 50.0 °F - 41.0 °F 71% 30.15 in 10.0 mi SSW 5.8 mph - N/A   Clear
11:30 PM 50.0 °F - 41.0 °F 71% 30.15 in 9.0 mi South 3.5 mph - N/A   Clear
11:50 PM 50.0 °F - 41.0 °F 71% 30.15 in 9.0 mi Calm Calm - N/A   Clear